Regional Weather Roundup
Issued by NWS

Home | Current Version | Previous Version | Graphics & Text | Print | Product List | Glossary On
Versions: 1 2 3 4 5 6 7 8 9 10 11 12 13 14 15 16 17 18 19 20 21 22 23 24 25 26 27 28 29 30 31 32 33 34 35 36 37 38 39 40 41 42 43 44 45 46 47 48 49 50
000
ASUS43 KLMK 221810
RWRKY
KENTUCKY REGIONAL WEATHER ROUNDUP
NATIONAL WEATHER SERVICE LOUISVILLE KY
200 PM EDT WED OCT 22 2014

NOTE "FAIR" INDICATES FEW OR NO CLOUDS BELOW 12,000 FEET
WITH NO SIGNIFICANT WEATHER AND/OR OBSTRUCTIONS TO VISIBILITY.

KYZ001>023-026-027-061>063-070>075-221900-
WESTERN AND SOUTH CENTRAL KENTUCKY

CITY           SKY/WX    TMP DP  RH WIND       PRES   REMARKS
PADUCAH        FAIR      61  44  53 N7        30.27F
HENDERSON      FAIR     N/A N/A N/A NE7       30.28F
OWENSBORO      SUNNY     57  40  53 VRB6      30.29F
HOPKINSVILLE   SUNNY     59  42  53 N13       30.25F
BOWLING GREEN  SUNNY     58  39  49 VRB3      30.26F
GLASGOW        SUNNY     58  39  49 NE7       30.24F
$$

KYZ024-025-028>034-038-045-046-053-221900-
NORTH CENTRAL KENTUCKY

CITY           SKY/WX    TMP DP  RH WIND       PRES   REMARKS
LOUISVILLE/SDF MOSUNNY   59  41  51 E8        30.28F
LOUISVILLE/LOU MOSUNNY   58  41  53 VRB5      30.28F
FORT KNOX      SUNNY     57  42  55 VRB6      30.25F
$$

KYZ035>037-039>044-047>052-055>060-089>105-221900-
NORTHEAST KENTUCKY

CITY           SKY/WX    TMP DP  RH WIND       PRES   REMARKS
LEXINGTON      PTSUNNY   54  41  61 N8        30.27F
COVINGTON      PTSUNNY   55  40  56 VRB7      30.28F
FRANKFORT      MOSUNNY   56  40  55 N7        30.27F
$$

KYZ054-064>069-076>088-106>120-221900-
SOUTHEAST KENTUCKY

CITY           SKY/WX    TMP DP  RH WIND       PRES   REMARKS
JACKSON        CLOUDY    49  41  74 CALM      30.25F
LONDON         CLOUDY    49  40  71 NE7       30.26F
SOMERSET       PTSUNNY   52  41  66 NE9       30.27F
MIDDLESBORO    CLOUDY    53  41  63 NE10      30.24S
MONTICELLO     CLEAR     57  40  53 NE8G16    30.26F
$$




USA.gov is the U.S. government's official web portal to all federal, state and local government web resources and services.